Visibility
15.0 15.0 15.0 15.0 15.0 15.0 15.0 15.0 15.0 15.0 15.0 15.0 15.0 15.0 15.0 15.0 15.0 15.0 15.0 15.0 15.0 15.0 15.0 15.0 12.8 13.0 15.0 15.0 15.0 15.0 15.0 15.0 15.0 15.0 15.0 15.0 15.0 15.0
15.0 15.0 15.0 15.0 15.0 15.0 15.0 15.0 15.0 15.0 15.0 15.0 15.0 15.0 15.0 15.0 15.0 15.0 15.0 15.0 15.0 15.0 15.0 15.0 15.0 14.9 15.0 15.0 15.0 15.0 15.0 15.0 15.0 15.0 15.0 15.0 15.0 15.0
15.0 15.0 15.0 15.0 15.0 15.0 15.0 15.0 15.0 15.0 15.0 15.0 15.0 15.0 15.0 15.0 15.0 15.0 15.0 15.0 15.0 15.0 15.0 15.0 15.0 13.8 8.5 15.0 12.6 15.0 15.0 15.0 15.0 15.0 15.0 15.0 15.0 15.0
15.0 15.0 15.0 15.0 15.0 15.0 15.0 15.0 15.0 15.0 15.0 15.0 15.0 15.0 15.0 15.0 15.0 15.0 15.0 15.0 15.0 15.0 15.0 15.0 15.0 15.0 14.7 15.0 8.4 15.0 15.0 15.0 15.0 15.0 15.0 15.0 15.0 15.0
15.0 15.0 15.0 15.0 15.0 15.0 15.0 15.0 15.0 15.0 15.0 15.0 15.0 15.0 15.0 15.0 15.0 15.0 15.0 15.0 15.0 15.0 15.0 15.0 15.0 15.0 15.0 15.0 15.0 9.0 15.0 15.0 15.0 15.0 15.0 15.0 15.0 15.0
15.0 15.0 15.0 15.0 15.0 15.0 15.0 15.0 15.0 15.0 15.0 15.0 15.0 15.0 15.0 15.0 15.0 15.0 15.0 15.0 15.0 15.0 15.0 15.0 15.0 15.0 15.0 15.0 15.0 15.0 15.0 15.0 15.0 15.0 15.0 15.0 15.0 15.0
15.0 15.0 15.0 15.0 15.0 15.0 15.0 15.0 15.0 15.0 15.0 15.0 15.0 15.0 15.0 15.0 15.0 15.0 15.0 15.0 15.0 15.0 15.0 15.0 15.0 15.0 15.0 15.0 15.0 15.0 15.0 15.0 15.0 15.0 15.0 15.0 15.0 15.0
15.0 15.0 15.0 15.0 15.0 15.0 15.0 15.0 15.0 15.0 15.0 15.0 15.0 15.0 15.0 14.7 15.0 15.0 15.0 15.0 15.0 15.0 15.0 15.0 15.0 15.0 15.0 15.0 15.0 15.0 15.0 15.0 15.0 15.0 15.0 15.0 15.0 15.0
15.0 15.0 15.0 15.0 15.0 15.0 15.0 15.0 15.0 15.0 15.0 15.0 15.0 15.0 15.0 15.0 15.0 15.0 15.0 15.0 15.0 15.0 15.0 15.0 15.0 15.0 15.0 15.0 15.0 15.0 15.0 15.0 14.6 14.4 15.0 15.0 15.0 15.0
15.0 15.0 15.0 15.0 15.0 15.0 15.0 15.0 15.0 15.0 15.0 15.0 15.0 15.0 15.0 15.0 15.0 15.0 15.0 15.0 15.0 15.0 15.0 15.0 15.0 11.0 0.4 8.7 15.0 15.0 15.0 15.0 14.7 11.8 13.3 15.0 15.0 15.0
15.0 15.0 15.0 15.0 15.0 15.0 15.0 0.2 0.2 3.5 11.7 14.6 14.9 15.0 15.0 15.0 15.0 15.0 15.0 15.0 15.0 15.0 15.0 15.0 12.8 14.7 15.0 14.9 15.0 12.5 11.2 15.0 14.8 9.9 11.7 15.0 15.0 15.0
6.0 14.5 15.0 15.0 15.0 15.0 1.0 0.4 0.1 5.2 15.0 9.7 15.0 15.0 15.0 15.0 15.0 15.0 15.0 15.0 11.7 0.5 15.0 14.3 6.4 14.4 2.5 15.0 15.0 14.8 13.6 8.0 14.9 15.0 15.0 15.0 15.0 15.0
0.1 0.2 15.0 15.0 15.0 15.0 14.4 15.0 8.3 15.0 14.4 15.0 11.5 9.9 9.8 15.0 15.0 14.8 15.0 15.0 13.6 11.8 7.5 10.4 5.9 0.6 6.9 15.0 15.0 15.0 15.0 15.0 15.0 15.0 15.0 15.0 15.0 15.0
0.1 0.1 7.9 15.0 15.0 15.0 10.5 15.0 15.0 15.0 11.2 0.3 0.1 0.1 0.1 0.1 0.1 0.3 9.6 15.0 15.0 9.7 14.7 14.2 0.2 11.0 15.0 15.0 15.0 15.0 15.0 15.0 15.0 15.0 15.0 15.0 15.0 15.0
13.5 13.4 12.2 15.0 15.0 3.0 14.9 15.0 14.3 1.0 0.1 0.1 0.1 0.1 0.1 0.2 0.7 5.6 14.4 14.6 11.9 15.0 15.0 15.0 9.8 4.1 15.0 15.0 15.0 15.0 15.0 15.0 15.0 15.0 15.0 15.0 15.0 15.0
1.2 1.8 14.0 13.2 15.0 7.2 15.0 15.0 15.0 15.0 2.6 0.2 0.3 0.2 0.5 5.2 0.7 15.0 2.4 5.4 11.3 2.0 13.6 15.0 15.0 15.0 15.0 15.0 15.0 15.0 15.0 15.0 15.0 15.0 15.0 15.0 15.0 15.0
6.2 4.8 0.2 0.1 0.1 1.7 15.0 15.0 15.0 15.0 15.0 15.0 6.2 0.4 0.3 9.8 5.5 12.0 12.0 15.0 13.6 1.0 6.0 14.0 15.0 15.0 8.0 15.0 15.0 15.0 15.0 15.0 15.0 15.0 15.0 15.0 15.0 15.0
2.1 0.4 0.1 0.1 0.1 0.1 5.0 15.0 15.0 15.0 15.0 15.0 15.0 15.0 3.2 0.9 0.3 4.8 13.1 15.0 15.0 15.0 13.6 10.5 5.9 5.6 6.6 15.0 15.0 15.0 15.0 15.0 15.0 15.0 15.0 15.0 15.0 15.0
0.0 0.0 0.0 0.0 0.0 0.1 0.3 8.1 15.0 15.0 0.6 0.7 6.9 15.0 15.0 15.0 14.9 5.9 15.0 15.0 14.5 15.0 11.1 2.6 0.6 0.3 0.2 0.4 15.0 15.0 15.0 15.0 15.0 15.0 15.0 15.0 15.0 15.0
0.1 0.1 0.0 0.0 0.0 0.0 0.0 0.0 0.7 11.5 0.5 0.2 2.1 0.3 0.1 0.2 0.2 12.8 12.4 13.6 12.9 8.2 6.1 2.6 0.7 0.3 0.2 0.6 15.0 15.0 15.0 15.0 15.0 15.0 15.0 15.0 15.0 15.0
0.1 0.1 0.1 0.1 0.0 0.0 0.0 0.0 0.0 0.0 0.0 0.0 0.1 0.1 0.0 0.1 0.3 1.3 1.9 11.1 4.3 5.4 4.7 9.5 15.0 15.0 15.0 15.0 15.0 15.0 15.0 15.0 15.0 15.0 15.0 15.0 15.0 15.0
5.6 3.9 2.5 1.6 0.5 0.1 0.0 0.0 0.0 0.0 0.0 0.0 0.0 0.0 0.1 0.0 0.1 0.2 0.3 0.4 0.2 1.2 2.3 0.9 3.4 2.9 14.7 15.0 15.0 15.0 15.0 15.0 15.0 15.0 15.0 15.0 13.5 8.5
2.8 5.4 8.0 9.0 6.6 8.3 8.2 0.4 0.0 0.0 0.0 0.0 0.0 0.1 0.1 0.1 0.3 0.2 0.5 0.3 0.1 0.1 0.2 0.3 0.3 0.3 2.1 15.0 15.0 15.0 15.0 15.0 15.0 15.0 15.0 15.0 15.0 15.0